Location: Unspecified
(51.0000°N, 12.0000°E)
Time: 04:41:19
(UTC+01:00)

ISS - Pass Details

Date: 14 November 2017
Orbit: 402 x 407 km, 51.6° (Epoch: 22 November)

Event Time Altitude Azimuth Distance (km) Brightness Sun altitude
Exits shadow 04:12:35 12° 99° (E) 1,342 -0.4 -30.3°
Drops below altitude 10° 04:12:58 - 100° (E) 1,502 -0.1 -30.3°
Sets 04:14:56 0° 100° (E) 2,314 1.1 -30.0°
